STARLINK-34579, 64925

Orbit data source: Space-Track

STARLINK-34579, 64925 is a payload satellite owned by SpaceX/Seattle (US) in LEO that was launched on Sat, 26 Jul 2025 UTC via an FALCON 9 launch vehicle from the Air Force Eastern Test Range (AFETR). Payload-class satellites include a variety of spacecraft equipped with specific instruments for various scientific and technological missions. These include communications satellites like Starlink; space stations such as the ISS; scientific satellites like the Hubble; Earth observation satellites from companies like Planet Labs, Umbra, and HawkEye 360; GPS; miniature CubeSats for education and research; and military/defense satellites.

Loading next visibility...
Identifier
64925, 2025-157X
Orbit
LEO
Country
Flag of USUS
Related business
Manufacturer
SpaceX/Seattle
Mission
Operational Commercial Communications
Bus & Motor
STARLINK V2MO, Unknown motor
Mass
575 kg wet, ~530 kg dry
Launch date (UTC)
2025-07-26 (4 months ago)
Launch vehicle
FALCON 9
Launch site
Air Force Eastern Test Range (AFETR)
Object type
Payload
Rocket body
Debris
Shape & HBR
Box + 2 Pan, 17.7 m
Radar Cross Section
36.964 m², Large (>1 m²)

Expand to show TLE details & history
Last TLE update: 2 days ago

TLE from 2 days ago
0 STARLINK-34579
1 64925U 25157X   25312.70370498  .00098118  00000-0  24298-2 0  9991
2 64925  53.1563 193.7928 0001151 109.1701 250.9428 15.39640755 17516
Epoch: 2025-11-08T16:53Z
TLE epoch observation values (Epoch: 2025-11-08T16:53:20.110Z)
Latitude
-0.00005°
Longitude
-107.67053°
Altitude
448.33 km
Speed
7.644 km/s
True Right ascension
12h 55m 10s
True Declination
0° 00' 00"
Sunlit
Object was in daylight at epoch
Visualization orbit readout
Latitude
Unknown
Longitude
Unknown
Altitude
Unknown
Speed
Unknown
Apparent Right ascension
Unknown
Apparent Declination
Unknown
Sunlit
N/A
Visualization observer readout
Local Sidereal Time
03:52:35
Azimuth
Unknown
Elevation
Unknown
Doppler factor
Unknown
Orbital elements
Apogee altitude
448.214 km
Perigee altitude
446.643 km
Semi-major axis
6,825.566 km
Eccentricity
0.00012
Inclination
53.1563°
RAAN
193.7928°
Arg. of periapsis
109.1701°
True anomaly
250.93033°
Mean anomaly
250.9428°
Eccentric anomaly
250.93657°
Mean motion
3.84889 °/min
Orbital period
93.53 mins
BSTAR
0.0024298
Loading maneuver chart data...
Computing Atmospheric mass density...
Loading historical data...
Loading historical data...
Loading historical data...
Loading historical data...
Loading historical data...
Loading historical data...
Loading historical data...

Documentation

Showing up to 5 results
|